Weather History for Manistee, MI

Change the Weather History Date:

Saturday, November 2, 2013

  Actual Average Record
Temperature  
Mean Temperature 40 °F -  
Max Temperature 44 °F 53 °F 72 °F (1956)
Min Temperature 35 °F 39 °F 19 °F (1951)
Degree Days  
Heating Degree Days 26    
Moisture  
Dew Point 35 °F    
Average Humidity 78    
Maximum Humidity 93    
Minimum Humidity 57    
Precipitation  
Precipitation 0.01 in - - ()
Sea Level Pressure  
Sea Level Pressure 29.89 in    
Wind  
Wind Speed 5 mph (NNE)    
Max Wind Speed 12 mph    
Max Gust Speed 16 mph    
Visibility 10 miles    
Events      
Averages and records for this station are not official NWS values.
T = Trace of Precipitation, MM = Missing Value Source: NWS Daily Summary

Daily Weather History Graph

Daily Weather History Graph

Search for Another Location

Airport:

Trip Planner

Search our weather history database for the weather conditions in past years. The results will help you decide how hot, cold, wet, or windy it might be!

Date:

Astronomy

Nov. 02, 2013 Rise Set
Actual Time 8:23 AM EDT 6:32 PM EDT
Civil Twilight 7:53 AM EDT 7:03 PM EDT
Nautical Twilight 7:19 AM EDT 7:37 PM EDT
Astronomical Twilight 6:45 AM EDT 8:11 PM EDT
Moon 7:18 AM EDT (11/2) 6:04 PM EDT (11/2)
Length of Visible Light 11h 09m
Length of Day
10h 09m
Waning Crescent, 1% of the Moon is Illuminated
Nov 2
Waning Crescent
Nov 3
New
Nov 10
First Quarter
Nov 17
Full
Nov 25
Last Quarter

Hourly Weather History & Observations

Time (EDT) Temp. Windchill Dew Point Humidity Pressure Visibility Wind Dir Wind Speed Gust Speed Precip Events Conditions
12:15 AM 44.6 °F 42.2 °F 41.0 °F 87% 29.67 in 10.0 mi North 4.6 mph - 0.01 in   Overcast
12:35 AM 44.6 °F - 41.0 °F 87% 29.67 in 10.0 mi Calm Calm - 0.01 in   Overcast
12:55 AM 44.6 °F - 41.0 °F 87% 29.68 in 10.0 mi Calm Calm - 0.01 in   Overcast
1:15 AM 42.8 °F 41.1 °F 41.0 °F 93% 29.68 in 10.0 mi NE 3.5 mph - N/A   Overcast
1:35 AM 42.8 °F 40.1 °F 41.0 °F 93% 29.68 in 10.0 mi NE 4.6 mph - N/A   Overcast
1:55 AM 42.8 °F - 41.0 °F 93% 29.68 in 10.0 mi Calm Calm - N/A   Overcast
2:15 AM 42.8 °F - 41.0 °F 93% 29.69 in 10.0 mi Calm Calm - N/A   Overcast
2:35 AM 42.8 °F 41.1 °F 39.2 °F 87% 29.70 in 10.0 mi NE 3.5 mph - N/A   Overcast
2:55 AM 42.8 °F 41.1 °F 39.2 °F 87% 29.70 in 10.0 mi NNE 3.5 mph - N/A   Overcast
3:15 AM 42.8 °F - 39.2 °F 87% 29.71 in 10.0 mi Calm Calm - N/A   Overcast
3:35 AM 42.8 °F 41.1 °F 39.2 °F 87% 29.71 in 10.0 mi North 3.5 mph - N/A   Overcast
3:55 AM 42.8 °F 38.0 °F 39.2 °F 87% 29.72 in 10.0 mi NNE 8.1 mph - N/A   Overcast
4:15 AM 42.8 °F 41.1 °F 39.2 °F 87% 29.72 in 10.0 mi NE 3.5 mph - N/A   Overcast
4:35 AM 42.8 °F 40.1 °F 39.2 °F 87% 29.73 in 10.0 mi NNE 4.6 mph - N/A   Overcast
4:55 AM 42.8 °F - 39.2 °F 87% 29.73 in 10.0 mi Calm Calm - N/A   Overcast
5:15 AM 42.8 °F - 39.2 °F 87% 29.73 in 10.0 mi Calm Calm - N/A   Overcast
5:35 AM 42.8 °F - 39.2 °F 87% 29.74 in 10.0 mi Calm Calm - N/A   Overcast
5:55 AM 42.8 °F - 39.2 °F 87% 29.75 in 10.0 mi Calm Calm - N/A   Overcast
6:15 AM 42.8 °F - 37.4 °F 81% 29.75 in 10.0 mi Calm Calm - N/A   Mostly Cloudy
6:35 AM 42.8 °F - 39.2 °F 87% 29.75 in 10.0 mi Calm Calm - N/A   Mostly Cloudy
6:55 AM 41.0 °F 39.0 °F 37.4 °F 87% 29.76 in 10.0 mi North 3.5 mph - N/A   Overcast
7:15 AM 42.8 °F 38.6 °F 37.4 °F 81% 29.77 in 10.0 mi North 6.9 mph - N/A   Mostly Cloudy
7:35 AM 41.0 °F 37.1 °F 37.4 °F 87% 29.78 in 10.0 mi North 5.8 mph - N/A   Overcast
7:55 AM 41.0 °F 39.0 °F 37.4 °F 87% 29.79 in 10.0 mi North 3.5 mph - N/A   Overcast
8:15 AM 41.0 °F 38.0 °F 37.4 °F 87% 29.80 in 10.0 mi NNE 4.6 mph - N/A   Overcast
8:35 AM 41.0 °F 37.1 °F 37.4 °F 87% 29.80 in 10.0 mi NNE 5.8 mph - N/A   Overcast
8:55 AM 41.0 °F 37.1 °F 37.4 °F 87% 29.81 in 10.0 mi NNE 5.8 mph - N/A   Overcast
9:15 AM 41.0 °F 36.4 °F 37.4 °F 87% 29.82 in 10.0 mi NNE 6.9 mph - N/A   Overcast
9:35 AM 41.0 °F 37.1 °F 37.4 °F 87% 29.83 in 10.0 mi NNE 5.8 mph - N/A   Mostly Cloudy
9:55 AM 41.0 °F 36.4 °F 37.4 °F 87% 29.84 in 10.0 mi NNE 6.9 mph - N/A   Overcast
10:15 AM 42.8 °F 37.5 °F 37.4 °F 81% 29.85 in 10.0 mi NE 9.2 mph - N/A   Overcast
10:35 AM 42.8 °F 38.6 °F 37.4 °F 81% 29.85 in 10.0 mi NE 6.9 mph - N/A   Scattered Clouds
10:55 AM 42.8 °F 37.5 °F 37.4 °F 81% 29.86 in 10.0 mi NE 9.2 mph - N/A   Scattered Clouds
11:15 AM 42.8 °F 38.0 °F 35.6 °F 76% 29.87 in 10.0 mi NNE 8.1 mph - N/A   Overcast
11:35 AM 42.8 °F 37.5 °F 35.6 °F 76% 29.87 in 10.0 mi NNE 9.2 mph - N/A   Overcast
11:55 AM 42.8 °F 38.0 °F 35.6 °F 76% 29.88 in 10.0 mi NE 8.1 mph - N/A   Overcast
12:15 PM 44.6 °F 38.8 °F 37.4 °F 76% 29.90 in 10.0 mi NNE 11.5 mph - N/A   Mostly Cloudy
12:35 PM 42.8 °F 39.3 °F 35.6 °F 76% 29.90 in 10.0 mi North 5.8 mph - N/A   Overcast
12:55 PM 42.8 °F 37.5 °F 35.6 °F 76% 29.91 in 10.0 mi North 9.2 mph - N/A   Overcast
1:15 PM 44.6 °F 39.2 °F 35.6 °F 71% 29.91 in 10.0 mi NNE 10.4 mph - N/A   Overcast
1:35 PM 44.6 °F 39.7 °F 35.6 °F 71% 29.92 in 10.0 mi North 9.2 mph 16.1 mph N/A   Overcast
1:55 PM 44.6 °F 40.7 °F 32.0 °F 61% 29.92 in 10.0 mi NNE 6.9 mph - N/A   Overcast
2:15 PM 44.6 °F 39.2 °F 32.0 °F 61% 29.92 in 10.0 mi NE 10.4 mph - N/A   Overcast
2:35 PM 44.6 °F 40.2 °F 33.8 °F 66% 29.93 in 10.0 mi NNE 8.1 mph - N/A   Overcast
2:55 PM 44.6 °F 39.7 °F 32.0 °F 61% 29.93 in 10.0 mi NNE 9.2 mph - N/A   Overcast
3:15 PM 44.6 °F 40.2 °F 30.2 °F 57% 29.94 in 10.0 mi North 8.1 mph - N/A   Overcast
3:35 PM 44.6 °F 39.7 °F 30.2 °F 57% 29.96 in 10.0 mi North 9.2 mph - N/A   Overcast
3:55 PM 44.6 °F 39.7 °F 30.2 °F 57% 29.96 in 10.0 mi North 9.2 mph - N/A   Overcast
4:15 PM 44.6 °F 39.7 °F 30.2 °F 57% 29.97 in 10.0 mi NNE 9.2 mph - N/A   Mostly Cloudy
4:35 PM 42.8 °F 38.6 °F 30.2 °F 61% 29.98 in 10.0 mi NE 6.9 mph - N/A   Mostly Cloudy
4:55 PM 42.8 °F 37.5 °F 30.2 °F 61% 29.99 in 10.0 mi NNE 9.2 mph - N/A   Overcast
5:15 PM 42.8 °F 37.5 °F 30.2 °F 61% 30.00 in 10.0 mi NNE 9.2 mph - N/A   Overcast
5:35 PM 42.8 °F 38.0 °F 30.2 °F 61% 30.00 in 10.0 mi North 8.1 mph - N/A   Overcast
5:55 PM 42.8 °F 37.5 °F 30.2 °F 61% 30.01 in 10.0 mi North 9.2 mph - N/A   Overcast
6:15 PM 42.8 °F 38.0 °F 30.2 °F 61% 30.02 in 10.0 mi NNE 8.1 mph - N/A   Overcast
6:35 PM 42.8 °F 39.3 °F 30.2 °F 61% 30.03 in 10.0 mi NNE 5.8 mph - N/A   Overcast
6:55 PM 42.8 °F 39.3 °F 30.2 °F 61% 30.03 in 10.0 mi NE 5.8 mph - N/A   Overcast
7:15 PM 41.0 °F 39.0 °F 30.2 °F 65% 30.04 in 10.0 mi NE 3.5 mph - N/A   Overcast
7:35 PM 41.0 °F 37.1 °F 30.2 °F 65% 30.05 in 10.0 mi NE 5.8 mph - N/A   Overcast
7:55 PM 41.0 °F 38.0 °F 30.2 °F 65% 30.06 in 10.0 mi NNE 4.6 mph - N/A   Overcast
8:15 PM 39.2 °F 35.0 °F 33.8 °F 81% 30.08 in 10.0 mi NNE 5.8 mph - N/A   Mostly Cloudy
8:35 PM 39.2 °F 35.0 °F 33.8 °F 81% 30.08 in 10.0 mi NNE 5.8 mph - N/A   Mostly Cloudy
8:55 PM 39.2 °F 34.2 °F 33.8 °F 81% 30.09 in 10.0 mi NNE 6.9 mph - N/A   Partly Cloudy
9:15 PM 37.4 °F 33.8 °F 33.8 °F 87% 30.10 in 10.0 mi NNE 4.6 mph - N/A   Clear
9:35 PM 37.4 °F 33.8 °F 33.8 °F 87% 30.10 in 10.0 mi NE 4.6 mph - N/A   Partly Cloudy
9:55 PM 37.4 °F 32.8 °F 33.8 °F 87% 30.11 in 10.0 mi NE 5.8 mph - N/A   Clear
10:15 PM 37.4 °F 33.8 °F 33.8 °F 87% 30.11 in 10.0 mi NE 4.6 mph - N/A   Clear
10:35 PM 37.4 °F 32.1 °F 33.8 °F 87% 30.12 in 10.0 mi NE 6.9 mph - N/A   Clear
10:55 PM 37.4 °F 31.4 °F 33.8 °F 87% 30.13 in 10.0 mi NE 8.1 mph - N/A   Clear
11:15 PM 37.4 °F 33.8 °F 33.8 °F 87% 30.13 in 10.0 mi East 4.6 mph - N/A   Clear
11:35 PM 35.6 °F 32.8 °F 32.0 °F 87% 30.13 in 10.0 mi East 3.5 mph - N/A   Clear
11:55 PM 35.6 °F 30.7 °F 32.0 °F 87% 30.14 in 10.0 mi ENE 5.8 mph - N/A   Clear